RH
17 18 20 22 25 30 33 34 34 35 35 35 36 36 36 35 33 29 28 28 27 26 27 27 27 26 26 25 25 25 32 37
18 18 20 22 25 30 34 35 35 36 38 37 37 38 38 36 36 33 29 28 27 27 26 28 29 29 29 28 27 25 25 34
19 19 20 22 25 29 33 35 36 37 39 39 38 38 40 39 38 36 33 29 28 28 28 28 28 29 30 31 31 29 27 34
20 20 20 21 24 28 31 35 35 35 37 39 40 40 39 41 40 39 36 33 30 30 30 30 30 30 30 30 31 32 32 31
22 23 23 21 22 26 30 33 34 34 35 37 39 42 41 41 41 40 38 37 35 34 34 34 34 34 34 34 33 31 32 33
24 24 23 23 22 26 30 32 33 33 34 36 39 41 44 42 45 49 50 48 43 42 41 42 42 42 40 40 38 35 34 33
23 23 24 25 22 23 32 34 34 34 35 37 41 43 45 46 50 55 56 57 56 53 50 51 52 52 52 47 41 36 35 34
22 23 25 25 22 23 28 34 34 35 37 39 40 41 44 50 54 55 55 58 60 65 63 64 60 59 54 42 37 39 38 39
22 23 27 27 25 24 27 31 32 33 36 40 42 42 42 44 49 52 55 56 57 59 62 62 62 60 54 46 41 39 38 37
21 22 25 28 26 24 29 31 31 33 36 39 40 41 43 44 46 49 51 52 53 54 54 57 58 55 54 49 43 40 36 40
21 21 24 27 28 24 27 30 30 32 37 41 41 41 43 43 43 45 46 48 49 50 53 61 60 57 52 44 33 31 32 32
22 21 23 28 30 27 28 30 29 31 34 39 44 44 45 46 44 43 44 46 49 59 62 55 54 53 41 28 24 24 26 28
22 23 24 28 30 28 28 28 31 33 35 40 44 48 49 51 53 50 48 50 54 56 59 57 53 36 25 23 24 27 29 32
22 26 24 26 28 28 27 29 31 35 37 41 44 47 50 54 57 58 56 55 54 53 49 45 32 26 24 27 30 33 35 37
24 25 23 25 27 30 32 33 36 40 39 42 46 50 53 57 61 64 66 67 66 62 50 39 35 33 33 37 37 36 33 33
23 23 21 24 26 30 31 32 34 35 38 45 50 53 55 58 63 69 72 74 68 52 44 40 38 38 38 37 37 38 39 37
21 23 22 22 28 32 36 37 37 38 45 48 50 54 57 62 67 72 67 62 60 57 52 46 43 43 42 42 42 42 42 41
23 26 28 30 30 35 40 41 40 43 47 48 51 58 61 63 63 60 60 59 58 60 56 55 51 49 49 50 49 50 47 44
21 23 27 31 34 36 38 43 47 47 49 52 56 58 61 54 62 59 60 59 59 58 56 54 52 51 51 51 50 47 47 51
25 24 27 28 33 36 37 39 46 50 57 53 56 63 54 65 58 61 57 55 56 55 53 54 55 54 51 50 47 53 59 47